Regional Weather Roundup
Issued by NWS

Home | Current Version | Previous Version | Text Only | Print | Product List | Glossary Off
Versions: 1 2 3 4 5 6 7 8 9 10 11 12 13 14 15 16 17 18 19 20 21 22 23 24 25 26 27 28 29 30 31 32 33 34 35 36 37 38 39 40 41 42 43 44 45 46 47 48 49 50

000
ASUS43 KFSD 310902
RWRSD

WEATHER ROUNDUP FOR SOUTH DAKOTA
NATIONAL WEATHER SERVICE SIOUX FALLS SD
400 AM CDT SUN AUG 31 2014

NOTE: "FAIR" INDICATES FEW OR NO CLOUDS BELOW 12,000 FEET WITH NO
SIGNIFICANT WEATHER AND/OR OBSTRUCTIONS TO VISIBILITY.


SDZ001>005-009-010-012>017-311000-
NORTHWEST AND NORTH CENTRAL SOUTH DAKOTA

CITY           SKY/WX    TMP DP  RH WIND       PRES   REMARKS
BUFFALO          N/A     57  55  93 W13       29.65F
FAITH            N/A     60  58  92 W14       29.68R
MOBRIDGE       PTCLDY    62  62 100 E7        29.58F
$$

SDZ012>016-024>037-041>051-057-063-072>074-311000-
SOUTHWEST AND SOUTH CENTRAL SOUTH DAKOTA

CITY           SKY/WX    TMP DP  RH WIND       PRES   REMARKS
RAPID CTY ARPT CLEAR     55  53  93 W3        29.76R
PIERRE         MOCLDY    65  61  87 W14       29.62F
CUSTER         CLEAR     52  45  77 W7        29.87F
ELLSWORTH AFB  CLEAR     54  53  96 NW8       29.75S
PHILIP         PTCLDY    60  54  80 W8        29.69F
PINE RIDGE     CLEAR     54  52  93 CALM      29.77F
WINNER         FAIR      72  59  63 W14       29.70S
$$

SDZ004>011-016>023-039-040-311000-
NORTHEAST SOUTH DAKOTA

CITY           SKY/WX    TMP DP  RH WIND       PRES   REMARKS
ABERDEEN       MOCLDY    63  61  93 S7        29.61F
WATERTOWN      CLOUDY    63  58  83 SE18      29.68F
SISSETON         N/A     61  61 100 S14G24    29.66F
$$

SDZ017-020-022-023-036>040-048>070-311000-
SOUTHEAST SOUTH DAKOTA

CITY           SKY/WX    TMP DP  RH WIND       PRES   REMARKS
SIOUX FALLS    PTCLDY    67  62  84 S14       29.74F
HURON          CLOUDY    65  61  87 S9G20     29.63F
CHAMBERLAIN    CLOUDY    70  65  83 SW15      29.69R
MITCHELL       CLOUDY    67  63  87 S12       29.67F
YANKTON        PTCLDY    64  63  94 S8        29.75F
$$

ABBREVIATIONS USED IN REMARKS
   TC - TEMPERATURE IN CELSIUS
  WCI - WIND CHILL INDEX
   HX - HEAT INDEX
  VSB - VISIBILITY




USA.gov is the U.S. government's official web portal to all federal, state and local government web resources and services.